| time (UTC) | temp F | wind direction | speed MPH | gust MPH | rain 1hr in | rain 24hr in | rain mn in | humidity % | barometer mb |
| 20260906104552 | 71 | 226 | 0.0 | 3.0 | 0.00 | 0.07 | 0.00 | 91 | 1013.6 |
| 20260906103048 | 71 | 233 | 1.0 | 3.0 | 0.00 | 0.07 | 0.00 | 91 | 1013.4 |
| 20260906101601 | 71 | 172 | 0.0 | 3.0 | 0.00 | 0.07 | 0.00 | 91 | 1013.3 |
| 20260906100054 | 71 | 206 | 2.0 | 4.0 | 0.00 | 0.07 | 0.00 | 91 | 1013.2 |
| 20260906094604 | 71 | 229 | 1.0 | 5.0 | 0.00 | 0.07 | 0.00 | 91 | 1012.9 |
| 20260906093056 | 71 | 220 | 2.0 | 4.0 | 0.00 | 0.07 | 0.00 | 91 | 1013.0 |
| 20260906091554 | 71 | 0 | 0.0 | 0.0 | 0.00 | 0.07 | 0.00 | 91 | 1013.0 |
| 20260906090126 | 71 | 0 | 0.0 | 4.0 | 0.00 | 0.07 | 0.00 | 91 | 1013.1 |
| 20260906084553 | 71 | 218 | 1.0 | 3.0 | 0.00 | 0.07 | 0.00 | 91 | 1013.1 |
| 20260906083056 | 71 | 232 | 0.0 | 2.0 | 0.00 | 0.07 | 0.00 | 91 | 1013.2 |
| 20260906081552 | 71 | 0 | 0.0 | 5.0 | 0.00 | 0.07 | 0.00 | 91 | 1013.1 |
| 20260906074555 | 71 | 208 | 2.0 | 5.0 | 0.00 | 0.07 | 0.00 | 90 | 1012.8 |
| 20260906073056 | 71 | 220 | 2.0 | 5.0 | 0.00 | 0.07 | 0.00 | 90 | 1012.8 |
| 20260906071552 | 71 | 237 | 1.0 | 6.0 | 0.00 | 0.07 | 0.00 | 90 | 1012.7 |
| 20260906070058 | 71 | 242 | 2.0 | 5.0 | 0.00 | 0.07 | 0.00 | 90 | 1012.5 |
| 20260906064553 | 72 | 221 | 1.0 | 5.0 | 0.00 | 0.07 | 0.00 | 91 | 1012.6 |
| 20260906063056 | 72 | 180 | 3.0 | 5.0 | 0.00 | 0.07 | 0.00 | 90 | 1012.9 |
| 20260906061551 | 71 | 235 | 1.0 | 3.0 | 0.00 | 0.07 | 0.00 | 90 | 1013.1 |
| 20260906060046 | 72 | 240 | 1.0 | 5.0 | 0.00 | 0.07 | 0.00 | 90 | 1013.2 |
| 20260906054601 | 71 | 234 | 1.0 | 3.0 | 0.00 | 0.07 | 0.00 | 90 | 1013.1 |
| 20260906053106 | 72 | 214 | 2.0 | 3.0 | 0.00 | 0.07 | 0.00 | 90 | 1013.1 |
| 20260906051547 | 72 | 235 | 2.0 | 4.0 | 0.00 | 0.07 | 0.00 | 90 | 1013.1 |
| 20260906050100 | 72 | 212 | 2.0 | 4.0 | 0.00 | 0.07 | 0.00 | 90 | 1013.3 |
| 20260906044553 | 72 | 229 | 2.0 | 4.0 | 0.00 | 0.07 | 0.00 | 90 | 1013.1 |
| 20260906043046 | 72 | 235 | 0.0 | 4.0 | 0.00 | 0.07 | 0.00 | 90 | 1013.0 |
| 20260906041559 | 72 | 220 | 2.0 | 4.0 | 0.00 | 0.07 | 0.00 | 90 | 1013.1 |
| 20260906040054 | 72 | 210 | 3.0 | 6.0 | 0.00 | 0.07 | 0.00 | 90 | 1012.9 |
| 20260906034547 | 72 | 0 | 0.0 | 3.0 | 0.00 | 0.07 | 0.07 | 90 | 1013.1 |
| 20260906033047 | 72 | 230 | 1.0 | 3.0 | 0.00 | 0.07 | 0.07 | 89 | 1013.3 |
| 20260906031557 | 73 | 180 | 1.0 | 3.0 | 0.00 | 0.07 | 0.07 | 89 | 1013.4 |
| 20260906030054 | 73 | 231 | 2.0 | 6.0 | 0.00 | 0.07 | 0.07 | 89 | 1013.5 |
| 20260906024607 | 73 | 237 | 2.0 | 4.0 | 0.00 | 0.07 | 0.07 | 89 | 1013.6 |
| 20260906023059 | 73 | 231 | 1.0 | 4.0 | 0.00 | 0.07 | 0.07 | 89 | 1013.7 |
| 20260906021600 | 73 | 232 | 1.0 | 4.0 | 0.00 | 0.07 | 0.07 | 89 | 1013.8 |
| 20260906020055 | 74 | 226 | 1.0 | 4.0 | 0.00 | 0.07 | 0.07 | 88 | 1013.5 |
| 20260906014551 | 74 | 260 | 2.0 | 4.0 | 0.00 | 0.07 | 0.07 | 88 | 1013.3 |
| 20260906013052 | 74 | 210 | 2.0 | 4.0 | 0.00 | 0.07 | 0.07 | 88 | 1013.0 |
| 20260906011559 | 75 | 0 | 0.0 | 5.0 | 0.00 | 0.07 | 0.07 | 87 | 1012.7 |
| 20260906010119 | 75 | 239 | 2.0 | 5.0 | 0.00 | 0.07 | 0.07 | 87 | 1012.5 |
| 20260906004557 | 76 | 223 | 2.0 | 6.0 | 0.00 | 0.07 | 0.07 | 86 | 1012.5 |
| 20260906003054 | 76 | 243 | 2.0 | 5.0 | 0.00 | 0.07 | 0.07 | 86 | 1012.6 |
| 20260906001601 | 77 | 225 | 3.0 | 7.0 | 0.00 | 0.07 | 0.07 | 85 | 1012.5 |
| 20260906000047 | 78 | 233 | 2.0 | 5.0 | 0.00 | 0.07 | 0.07 | 84 | 1012.6 |
| 20260905234554 | 78 | 237 | 1.0 | 5.0 | 0.00 | 0.07 | 0.07 | 83 | 1012.6 |
| 20260905233046 | 79 | 249 | 2.0 | 4.0 | 0.00 | 0.07 | 0.07 | 82 | 1012.9 |
| 20260905231551 | 79 | 0 | 1.0 | 5.0 | 0.00 | 0.07 | 0.07 | 81 | 1012.8 |
| 20260905230108 | 80 | 217 | 2.0 | 6.0 | 0.00 | 0.07 | 0.07 | 80 | 1012.7 |
| 20260905224551 | 81 | 0 | 0.0 | 4.0 | 0.00 | 0.07 | 0.07 | 78 | 1012.8 |
| 20260905223057 | 82 | 216 | 1.0 | 4.0 | 0.00 | 0.07 | 0.07 | 75 | 1012.7 |
| 20260905221552 | 84 | 224 | 1.0 | 4.0 | 0.00 | 0.07 | 0.07 | 73 | 1012.6 |
| 20260905220047 | 85 | 237 | 1.0 | 4.0 | 0.00 | 0.07 | 0.07 | 70 | 1012.5 |
| 20260905214553 | 85 | 301 | 1.0 | 4.0 | 0.00 | 0.07 | 0.07 | 64 | 1012.4 |
| 20260905213054 | 86 | 267 | 1.0 | 6.0 | 0.00 | 0.07 | 0.07 | 63 | 1012.4 |
| 20260905211608 | 86 | 293 | 2.0 | 6.0 | 0.00 | 0.07 | 0.07 | 63 | 1012.2 |
| 20260905210059 | 87 | 358 | 3.0 | 7.0 | 0.00 | 0.07 | 0.07 | 62 | 1012.1 |
| 20260905204552 | 86 | 296 | 1.0 | 5.0 | 0.00 | 0.07 | 0.07 | 62 | 1012.1 |
| 20260905203056 | 86 | 191 | 1.0 | 4.0 | 0.00 | 0.07 | 0.07 | 62 | 1012.1 |
| 20260905201557 | 86 | 272 | 1.0 | 4.0 | 0.00 | 0.07 | 0.07 | 61 | 1012.1 |
| 20260905200059 | 87 | 310 | 2.0 | 5.0 | 0.00 | 0.07 | 0.07 | 60 | 1012.2 |
| 20260905194555 | 86 | 0 | 1.0 | 4.0 | 0.00 | 0.07 | 0.07 | 62 | 1012.4 |
| 20260905193051 | 85 | 332 | 0.0 | 5.0 | 0.00 | 0.07 | 0.07 | 63 | 1012.5 |
| 20260905191546 | 85 | 58 | 2.0 | 5.0 | 0.00 | 0.07 | 0.07 | 62 | 1012.8 |
| 20260905190049 | 84 | 353 | 2.0 | 6.0 | 0.00 | 0.07 | 0.07 | 65 | 1013.1 |
| 20260905184609 | 84 | 69 | 2.0 | 5.0 | 0.00 | 0.07 | 0.07 | 64 | 1013.4 |
| 20260905183108 | 83 | 89 | 3.0 | 6.0 | 0.00 | 0.07 | 0.07 | 65 | 1013.6 |
| 20260905181558 | 83 | 202 | 1.0 | 5.0 | 0.00 | 0.07 | 0.07 | 68 | 1014.0 |
| 20260905180057 | 83 | 293 | 2.0 | 8.0 | 0.00 | 0.07 | 0.07 | 68 | 1014.1 |
| 20260905174550 | 82 | 0 | 1.0 | 4.0 | 0.00 | 0.07 | 0.07 | 71 | 1014.0 |
| 20260905173056 | 80 | 112 | 1.0 | 6.0 | 0.00 | 0.07 | 0.07 | 75 | 1014.3 |
| 20260905171554 | 80 | 33 | 3.0 | 8.0 | 0.00 | 0.07 | 0.07 | 76 | 1014.1 |
| 20260905164549 | 79 | 5 | 1.0 | 5.0 | 0.00 | 0.07 | 0.07 | 79 | 1015.0 |
| 20260905163054 | 78 | 43 | 1.0 | 3.0 | 0.00 | 0.07 | 0.07 | 82 | 1015.1 |
| 20260905161551 | 77 | 0 | 1.0 | 4.0 | 0.00 | 0.07 | 0.07 | 82 | 1015.2 |
| 20260905160049 | 77 | 47 | 0.0 | 3.0 | 0.00 | 0.07 | 0.07 | 83 | 1015.1 |
| 20260905154554 | 77 | 0 | 1.0 | 4.0 | 0.00 | 0.07 | 0.07 | 84 | 1015.4 |
| 20260905153052 | 77 | 307 | 2.0 | 5.0 | 0.00 | 0.07 | 0.07 | 84 | 1014.6 |
| 20260905151558 | 76 | 220 | 2.0 | 8.0 | 0.00 | 0.07 | 0.07 | 84 | 1014.1 |
| 20260905150100 | 75 | 248 | 0.0 | 10.0 | 0.00 | 0.07 | 0.07 | 88 | 1013.6 |
| 20260905144553 | 75 | 101 | 0.0 | 4.0 | 0.00 | 0.07 | 0.07 | 89 | 1014.2 |
| 20260905143048 | 74 | 31 | 2.0 | 5.0 | 0.00 | 0.07 | 0.07 | 90 | 1015.0 |
| 20260905141554 | 73 | 0 | 0.0 | 3.0 | 0.01 | 0.07 | 0.07 | 91 | 1015.9 |
| 20260905140107 | 73 | 0 | 0.0 | 4.0 | 0.05 | 0.07 | 0.07 | 91 | 1015.7 |
| 20260905134551 | 73 | 0 | 0.0 | 2.0 | 0.07 | 0.07 | 0.07 | 91 | 1016.2 |
| 20260905133055 | 73 | 0 | 0.0 | 2.0 | 0.07 | 0.07 | 0.07 | 90 | 1016.5 |
| 20260905131558 | 73 | 133 | 1.0 | 3.0 | 0.06 | 0.06 | 0.06 | 90 | 1015.7 |
| 20260905130046 | 73 | 0 | 0.0 | 8.0 | 0.02 | 0.02 | 0.02 | 90 | 1015.9 |
| 20260905124546 | 73 | 320 | 2.0 | 10.0 | 0.00 | 0.00 | 0.00 | 91 | 1016.4 |
| 20260905123104 | 73 | 0 | 0.0 | 3.0 | 0.00 | 0.00 | 0.00 | 91 | 1015.2 |
| 20260905121553 | 72 | 216 | 1.0 | 7.0 | 0.00 | 0.00 | 0.00 | 91 | 1015.0 |
| 20260905120051 | 71 | 238 | 2.0 | 3.0 | 0.00 | 0.00 | 0.00 | 91 | 1013.6 |
| 20260905114556 | 71 | 226 | 1.0 | 3.0 | 0.00 | 0.00 | 0.00 | 91 | 1013.4 |
| 20260905113051 | 71 | 233 | 0.0 | 4.0 | 0.00 | 0.00 | 0.00 | 91 | 1013.6 |
| 20260905111553 | 71 | 241 | 1.0 | 4.0 | 0.00 | 0.00 | 0.00 | 91 | 1013.6 |
| 20260905110056 | 71 | 218 | 0.0 | 3.0 | 0.00 | 0.00 | 0.00 | 91 | 1013.4 |